sat.trackr.live / text

‹ back to catalog

ONEWEB-0229

NORAD 48779 · 2021-045N

PAYLOAD ACTIVE UNKNOWN

§ Identity

Operator
Country
UK
Launch date
2021-05-28
Launch site
VOSTO
Launch vehicle
Mass (kg)
RCS (m²)

Purposes: comms

External: N2YO · Heavens-Above · Gunter

§ Orbital elements

Epoch: 2026-09-12T23:36:58.496832Z

Period
109.46 min
Inclination
87.8981°
Eccentricity
0.0002114
Mean motion
13.15547428 rev/d
Perigee alt
1,200.2 km
Apogee alt
1,203.4 km
Semi-major
7,579.9 km
B*
-2.2599e-4
RAAN
241.6883°
Arg perigee
83.3537°
Mean anomaly
276.7834°
Rev number
25,595

§ Raw data

ONEWEB-02291 48779U 21045N   26255.98401038 -.00000072  00000+0 -22599-3 0  99902 48779  87.8981 241.6883 0002114  83.3537 276.7834 13.15547428255950

JSON: /api/v1/satellites/48779 · /tle

For live sub-satellite position, see the globe view (requires WebGL).

§ Visibility from observer

Set your observer location to see the next 7 days of passes ≥ 10°. The values pass through the URL so the page stays shareable.

No JS? Fill the form by hand. The geolocation button needs JavaScript.